[[{"header":{"parameterUnit":"m.s-1","parameterCategory":1,"la1":30.2991,"la2":30.254,"lo1":-89.0895,"lo2":-89.0444,"dy":0.0017,"dx":0.0017,"nx":28,"ny":28,"refTime":"2025-05-25T09:00:00:Z","depth":0,"parameterNumber":2,"parameterNumberName":"U-component_of_WINDS"},"data":[0,0,0,0,0,0,0,0,0,0,0,0,0,0,0,0,0,0,0,0,0,0,0,0,0,0,0,0,0,0,0,0,0,0,0,0,0,0,0,0,0,0,0,0,0,0,0,0,0,0,0,0,0,0,0,0,0,0,-0.9434,-0.9433,0,-0.9282,-0.928,-0.9278,-0.9193,-0.9192,-0.9192,-0.9192,-0.9034,-0.903,-0.9027,0,0,0,0,0,0,0,0,0,0,0,0,0,-0.9651,-0.9648,-0.9434,-0.9432,-0.943,-0.9282,-0.928,-0.9278,-0.9193,-0.9192,-0.9192,-0.9192,-0.9036,-0.9031,-0.9026,0,0,0,0,0,0,0,0,0,0,0,0,0,-0.9534,-0.9646,-0.9435,-0.937,-0.9363,-0.9282,-0.928,-0.9277,-0.9193,-0.9192,-0.9192,-0.9192,-0.9037,-0.9031,-0.9026,-0.8997,0,0,-0.9007,-0.9005,0,0,0,0,0,0,0,0,-0.954,-0.9526,-0.9382,-0.9374,-0.9366,-0.9256,-0.9298,-0.9183,-0.9193,-0.9257,-0.9192,-0.9191,-0.9108,-0.9096,-0.9069,-0.899,-0.8983,-0.9007,-0.9003,-0.9001,-0.8999,0,0,0,0,0,0,0,-0.9549,-0.9532,-0.9374,-0.938,-0.937,-0.9349,-0.9331,-0.9276,-0.9187,-0.9252,-0.9245,-0.9228,-0.9104,-0.9075,-0.9064,-0.8981,-0.9007,-0.9002,-0.8998,-0.8996,-0.8871,-0.8871,0,0,0,0,0,0,-0.9567,-0.9539,-0.9379,-0.9369,-0.9454,-0.9345,-0.9326,-0.9292,-0.9187,-0.9171,-0.9229,-0.9225,-0.9085,-0.9071,-0.9059,-0.9018,-0.9001,-0.8995,-0.8992,-0.887,-0.8871,-0.8871,0,0,0,0,0,0,-0.9572,-0.9554,-0.9385,-0.9452,-0.9429,-0.9342,-0.9304,-0.9289,-0.9259,-0.917,-0.9153,-0.9215,-0.9084,-0.9067,-0.9013,-0.9011,-0.8993,-0.8987,-0.887,-0.887,-0.8871,-0.8937,0,0,0,0,0,0,-0.9579,-0.9556,-0.9544,-0.9453,-0.9426,-0.9342,-0.9304,-0.9286,-0.925,-0.9243,-0.9153,-0.9138,-0.9082,-0.9022,-0.9007,-0.9003,-0.8983,-0.887,-0.887,-0.8871,-0.8935,-0.894,-0.8944,0,0,0,0,0,-0.9587,-0.9569,-0.9544,-0.9525,-0.941,-0.9343,-0.9327,-0.9264,-0.925,-0.9237,-0.918,-0.914,-0.9014,-0.9018,-0.9,-0.8994,-0.887,-0.887,-0.8871,-0.8933,-0.8939,-0.8944,0,0,0,0,0,0,-0.9662,-0.9556,-0.9527,-0.9479,-0.9421,-0.9328,-0.931,-0.9273,-0.9217,-0.9213,-0.9137,-0.9118,-0.9071,-0.9027,-0.9033,-0.8961,-0.8938,-0.8935,-0.8991,-0.8996,-0.9001,-0.9012,-0.8978,0,0,0,0,0,-0.9674,-0.9628,-0.9537,-0.9504,-0.9476,-0.9399,-0.9367,-0.9324,-0.926,-0.9235,-0.9173,-0.9112,-0.9059,-0.9025,-0.8971,-0.8928,-0.8907,-0.8915,-0.892,-0.8925,-0.8923,-0.8897,-0.8899,-0.8872,-0.8872,-0.8872,0,0,-0.9696,-0.9632,-0.9608,-0.9517,-0.9467,-0.9421,-0.9378,-0.9332,-0.9297,-0.9227,-0.9173,-0.9126,-0.9053,-0.9005,-0.898,-0.8967,-0.8925,-0.8925,-0.8929,-0.8925,-0.8897,-0.89,-0.8902,-0.8873,-0.8873,-0.8873,0,0,-0.9713,-0.9661,-0.9627,-0.9577,-0.9502,-0.945,-0.9443,-0.9356,-0.9322,-0.9266,-0.9213,-0.9171,-0.908,-0.903,-0.8993,-0.8993,-0.8954,-0.8978,-0.9002,-0.8977,-0.8979,-0.8981,-0.898,-0.8981,-0.8976,-0.8976,-0.8976,0,-0.975,-0.968,-0.9614,-0.9571,-0.9532,-0.9468,-0.9433,-0.9388,-0.9299,-0.9274,-0.9259,-0.9145,-0.9091,-0.903,-0.9031,-0.9003,-0.8991,-0.8987,-0.8984,-0.8985,-0.8986,-0.8984,-0.8984,-0.8979,-0.8979,-0.8979,-0.8978,0,-0.9729,-0.9681,-0.9663,-0.9579,-0.9538,-0.95,-0.9428,-0.9395,-0.9356,-0.9306,-0.925,-0.9184,-0.9115,-0.9098,-0.9059,-0.9031,-0.9025,-0.8999,-0.8974,-0.8992,-0.899,-0.8989,-0.8984,-0.8983,-0.8982,-0.8981,0,0,-0.9789,-0.9669,-0.9664,-0.9625,-0.9537,-0.9498,-0.9457,-0.939,-0.9363,-0.9304,-0.9267,-0.9192,-0.9168,-0.9126,-0.908,-0.9059,-0.9063,-0.9035,-0.9032,-0.9042,-0.9029,-0.9049,-0.9049,-0.9037,-0.9037,-0.9037,-0.9035,0,-0.9793,-0.9715,-0.9655,-0.96,-0.9555,-0.9493,-0.9457,-0.9399,-0.9352,-0.9307,-0.9254,-0.9202,-0.9174,-0.9148,-0.9124,-0.9068,-0.9059,-0.9067,-0.9001,-0.9,-0.9021,-0.9048,-0.9068,-0.907,-0.9033,-0.9033,-0.9033,0,-0.9787,-0.9731,-0.9672,-0.9589,-0.9567,-0.9536,-0.947,-0.9427,-0.9361,-0.9328,-0.9282,-0.9235,-0.9188,-0.9169,-0.9103,-0.911,-0.908,-0.9048,-0.9046,-0.9037,-0.9017,-0.9039,-0.9068,-0.9069,-0.9031,-0.9031,-0.9031,0,-0.9836,-0.9746,-0.9698,-0.9667,-0.9569,-0.9548,-0.9507,-0.9439,-0.9403,-0.9346,-0.9322,-0.926,-0.9225,-0.9178,-0.9116,-0.9108,-0.9057,-0.9032,-0.9028,-0.9029,-0.9019,-0.902,-0.9044,-0.9001,-0.9001,-0.9001,-0.9001,0,-0.9847,-0.9813,-0.9719,-0.969,-0.965,-0.9581,-0.9544,-0.9497,-0.9438,-0.9398,-0.9341,-0.9305,-0.9226,-0.918,-0.9131,-0.9084,-0.9069,-0.9041,-0.9028,-0.9046,-0.9049,-0.9024,-0.9022,-0.9001,-0.9001,-0.9001,-0.9001,0,-0.9895,-0.983,-0.9775,-0.9687,-0.9664,-0.9639,-0.9563,-0.9533,-0.9483,-0.9434,-0.9418,-0.9339,-0.9283,-0.9216,-0.9138,-0.9105,-0.9062,-0.9043,-0.9085,-0.9077,-0.9076,-0.9077,-0.9084,-0.9081,-0.9042,-0.9042,-0.9042,0,-0.9906,-0.9878,-0.9788,-0.9757,-0.9717,-0.9669,-0.9632,-0.9564,-0.9528,-0.945,-0.9429,-0.9368,-0.9316,-0.9228,-0.9164,-0.9104,-0.9083,-0.9089,-0.9073,-0.9092,-0.9082,-0.9085,-0.9081,-0.9094,-0.9094,-0.9095,-0.9096,0,-0.9932,-0.9901,-0.985,-0.9788,-0.9746,-0.9694,-0.9639,-0.9618,-0.9538,-0.95,-0.9442,-0.9402,-0.9322,-0.9262,-0.9194,-0.9151,-0.911,-0.9101,-0.9097,-0.9114,-0.9139,-0.9125,-0.9096,-0.9101,-0.9101,-0.91,-0.91,-0.91,-0.9961,-0.9933,-0.9866,-0.9811,-0.9763,-0.9713,-0.968,-0.9626,-0.9576,-0.9507,-0.9469,-0.9412,-0.9346,-0.925,-0.9208,-0.9162,-0.9148,-0.9142,-0.914,-0.9139,-0.9144,-0.9147,-0.9149,-0.9149,-0.9149,-0.9149,-0.9148,0,-0.9983,-0.9937,-0.9887,-0.9813,-0.977,-0.9736,-0.9674,-0.964,-0.959,-0.9532,-0.9482,-0.9415,-0.9357,-0.9289,-0.9226,-0.9203,-0.9182,-0.9188,-0.9189,-0.918,-0.9161,-0.9171,-0.9206,-0.9206,-0.9206,-0.9206,-0.9206,-0.9206,-0.999,-0.9942,-0.9904,-0.9831,-0.9785,-0.9728,-0.9696,-0.965,-0.9603,-0.9531,-0.9483,-0.9439,-0.9376,-0.9309,-0.9254,-0.9235,-0.9215,-0.9227,-0.9203,-0.9186,-0.9181,-0.9176,-0.9185,-0.9223,-0.9223,-0.9225,-0.9225,-0.9225]},{"header":{"parameterUnit":"m.s-1","parameterCategory":1,"la1":30.2991,"la2":30.254,"lo1":-89.0895,"lo2":-89.0444,"dy":0.0017,"dx":0.0017,"nx":28,"ny":28,"refTime":"2025-05-25T09:00:00:Z","depth":0,"parameterNumber":3,"parameterNumberName":"V-component_of_WINDS"},"data":[0,0,0,0,0,0,0,0,0,0,0,0,0,0,0,0,0,0,0,0,0,0,0,0,0,0,0,0,0,0,0,0,0,0,0,0,0,0,0,0,0,0,0,0,0,0,0,0,0,0,0,0,0,0,0,0,0,0,4.3795,4.3795,0,4.3785,4.3784,4.3784,4.3729,4.3728,4.3727,4.3725,4.3715,4.3716,4.3717,0,0,0,0,0,0,0,0,0,0,0,0,0,4.3768,4.3768,4.3795,4.3795,4.3794,4.3785,4.3784,4.3784,4.373,4.3728,4.3726,4.3725,4.3715,4.3716,4.3717,0,0,0,0,0,0,0,0,0,0,0,0,0,4.3771,4.3769,4.3795,4.3766,4.3763,4.3785,4.3784,4.3784,4.373,4.3728,4.3726,4.3724,4.3714,4.3716,4.3717,4.3765,0,0,4.3721,4.3722,0,0,0,0,0,0,0,0,4.377,4.3772,4.377,4.3768,4.3765,4.3756,4.3771,4.3778,4.373,4.3743,4.3725,4.3723,4.373,4.373,4.3733,4.3765,4.3764,4.3722,4.3722,4.3723,4.3723,0,0,0,0,0,0,0,4.377,4.3772,4.3791,4.377,4.3767,4.3754,4.3752,4.3772,4.3748,4.3741,4.3737,4.3737,4.3728,4.3731,4.3732,4.3764,4.3722,4.3723,4.3724,4.3724,4.3837,4.3839,0,0,0,0,0,0,4.3774,4.3772,4.3791,4.379,4.3763,4.3756,4.3754,4.3761,4.3747,4.3743,4.3739,4.3734,4.373,4.373,4.3731,4.3788,4.3723,4.3724,4.3725,4.3835,4.3837,4.3839,0,0,0,0,0,0,4.3774,4.3776,4.3791,4.378,4.3781,4.3758,4.3767,4.3762,4.3765,4.3745,4.3741,4.3746,4.3728,4.3729,4.3758,4.3787,4.3725,4.3726,4.3832,4.3835,4.3838,4.3901,0,0,0,0,0,0,4.3773,4.3777,4.3794,4.3781,4.3782,4.3818,4.3769,4.3763,4.3767,4.3762,4.3751,4.3747,4.3727,4.3756,4.3759,4.3788,4.3727,4.3829,4.3833,4.3837,4.3896,4.3906,4.3914,0,0,0,0,0,4.3772,4.3812,4.3795,4.3798,4.3804,4.3819,4.382,4.3796,4.377,4.3788,4.3775,4.3748,4.3783,4.3759,4.3762,4.3792,4.3827,4.3832,4.3837,4.3892,4.3904,4.3914,0,0,0,0,0,0,4.3829,4.381,4.3791,4.3827,4.3826,4.381,4.3832,4.3809,4.3814,4.3809,4.3778,4.3777,4.381,4.3803,4.3777,4.3838,4.3801,4.3806,4.3841,4.3852,4.3861,4.3862,4.3729,0,0,0,0,0,4.3845,4.386,4.3842,4.3876,4.3876,4.3854,4.386,4.3842,4.3839,4.3838,4.3827,4.3825,4.3836,4.3844,4.3852,4.3895,4.3892,4.3917,4.3926,4.3933,4.3939,4.3962,4.3973,4.3855,4.3855,4.3855,0,0,4.388,4.3871,4.3882,4.3887,4.3883,4.39,4.3854,4.3872,4.3884,4.384,4.3867,4.3859,4.3855,4.3891,4.3906,4.3887,4.3971,4.3939,4.3945,4.3947,4.3968,4.3979,4.3989,4.3859,4.3858,4.3857,0,0,4.3951,4.3946,4.3974,4.3972,4.3967,4.3953,4.396,4.3948,4.3941,4.3967,4.3935,4.3949,4.3968,4.3966,4.3968,4.4041,4.4016,4.4045,4.4092,4.4115,4.4124,4.4132,4.4159,4.4169,4.405,4.405,4.405,0,4.3995,4.4017,4.3991,4.4013,4.4016,4.3978,4.4007,4.4005,4.4004,4.4008,4.3986,4.401,4.4004,4.404,4.4058,4.406,4.4068,4.4046,4.4125,4.4133,4.414,4.4166,4.4176,4.4054,4.4053,4.4053,4.4053,0,4.4072,4.4088,4.4112,4.4112,4.4118,4.4143,4.4121,4.4131,4.4112,4.41,4.4128,4.412,4.4127,4.4134,4.4116,4.4168,4.4156,4.413,4.4092,4.4155,4.4179,4.4188,4.4059,4.4058,4.4057,4.4056,0,0,4.4178,4.4164,4.4173,4.4174,4.4167,4.4179,4.4203,4.421,4.4219,4.422,4.4239,4.4257,4.4233,4.4235,4.4217,4.4237,4.4297,4.4209,4.4208,4.4226,4.4355,4.4375,4.4387,4.428,4.4282,4.4283,4.4356,0,4.4247,4.4287,4.4264,4.4307,4.4323,4.4288,4.4308,4.4306,4.4296,4.4308,4.4297,4.431,4.4277,4.4279,4.4297,4.4286,4.4322,4.428,4.4299,4.43,4.4302,4.4399,4.442,4.4489,4.4365,4.4366,4.4367,0,4.4333,4.4338,4.4383,4.4374,4.438,4.4399,4.4405,4.4416,4.4414,4.4405,4.4409,4.4386,4.4409,4.4371,4.4403,4.4374,4.4381,4.4376,4.4379,4.438,4.4338,4.4404,4.451,4.4521,4.4381,4.438,4.4379,0,4.4407,4.4425,4.4455,4.4456,4.4446,4.4461,4.4457,4.4453,4.4459,4.4464,4.4468,4.4476,4.448,4.4487,4.4467,4.4441,4.4502,4.4462,4.4496,4.4497,4.4511,4.451,4.4621,4.4514,4.4514,4.4513,4.4513,0,4.4487,4.4516,4.4488,4.4507,4.4539,4.4513,4.4545,4.4538,4.4535,4.4552,4.4521,4.4537,4.4509,4.4523,4.4507,4.4537,4.4539,4.4533,4.4529,4.4536,4.4537,4.454,4.4536,4.4516,4.4516,4.4515,4.4515,0,4.4575,4.4558,4.4588,4.4577,4.4575,4.4599,4.4589,4.4606,4.4594,4.4616,4.4619,4.4601,4.4615,4.4596,4.4608,4.4598,4.4639,4.4627,4.464,4.4637,4.4673,4.467,4.479,4.4804,4.4687,4.4688,4.4689,0,4.4628,4.465,4.4642,4.4651,4.465,4.4665,4.4671,4.4647,4.4655,4.4655,4.4672,4.4684,4.4693,4.4718,4.4706,4.4716,4.4704,4.4745,4.4705,4.4713,4.4706,4.4706,4.4708,4.4754,4.4755,4.4756,4.4757,0,4.4724,4.4715,4.4725,4.4734,4.4743,4.4749,4.4752,4.4761,4.4736,4.4747,4.4762,4.4768,4.4782,4.4795,4.4801,4.4798,4.4774,4.477,4.4779,4.4787,4.4794,4.4792,4.4664,4.4767,4.4766,4.4766,4.4765,4.4765,4.4797,4.4815,4.4813,4.4826,4.4826,4.483,4.4846,4.4837,4.4849,4.4858,4.4843,4.4862,4.486,4.4867,4.4866,4.4881,4.4864,4.4876,4.4879,4.4883,4.4889,4.4791,4.4882,4.4882,4.4882,4.4881,4.4881,0,4.4892,4.4889,4.4902,4.4908,4.4919,4.4896,4.4898,4.4909,4.4927,4.4927,4.4936,4.4954,4.4967,4.4956,4.4967,4.4981,4.497,4.4984,4.4984,4.4983,4.4904,4.4896,4.4993,4.4993,4.4993,4.4993,4.4993,4.4993,4.4943,4.4974,4.4964,4.4995,4.4991,4.501,4.5014,4.5018,4.5018,4.504,4.505,4.5043,4.5039,4.505,4.506,4.5057,4.5063,4.5081,4.5074,4.5,4.4989,4.4978,4.4971,4.5082,4.5083,4.5153,4.5153,4.5154]}]]